Regional Weather Roundup
Issued by NWS

Home | Current Version | Previous Version | Text Only | Print | Product List | Glossary On
Versions: 1 2 3 4 5 6 7 8 9 10 11 12 13 14 15 16 17 18 19 20 21 22 23 24 25 26 27 28 29 30 31 32 33 34 35 36 37 38 39 40 41 42 43 44 45 46 47 48 49 50
510
ASUS43 KMPX 281510
RWRMN
WEATHER ROUNDUP FOR MINNESOTA
NATIONAL WEATHER SERVICE TWIN CITIES/CHANHASSEN MN
900 AM CST TUE FEB 28 2017


NOTE: "FAIR" INDICATES FEW OR NO CLOUDS BELOW 12,000 FEET WITH NO
SIGNIFICANT WEATHER AND/OR OBSTRUCTIONS TO VISIBILITY. N/A MEANS
CURRENT SKY AND/OR WEATHER CONDITIONS ARE NOT AVAILABLE.

MNZ060>063-068>070-281600-
   Twin Cities Metro

CITY           SKY/WX    TMP DP  RH WIND       PRES   REMARKS
TWIN CITIES    CLOUDY    41  31  67 E9        29.72F
ST PAUL        CLOUDY    41  32  70 VRB7      29.74S
CRYSTAL        PTSUNNY   38  28  67 NE6       29.72S
BLAINE         CLOUDY    39  30  70 NE7       29.73S
LAKEVILLE      CLOUDY    37  34  87 NE5       29.72R
EDEN PRAIRIE   MOSUNNY   41  31  67 NE8       29.71R
SOUTH ST PAUL  CLOUDY    41  31  69 NE3       29.73R
LAKE ELMO      CLOUDY    39  32  75 E8        29.73F
$$
MNZ001>005-007-008-013>017-022>024-027-028-281600-
   Northwest Minnesota

CITY           SKY/WX    TMP DP  RH WIND       PRES   REMARKS
BEMIDJI        CLOUDY    23  19  82 NE9       29.83F WCI  13
HALLOCK        SUNNY      7   1  78 N8        29.96S WCI  -6
ROSEAU         SUNNY      5   0  78 NE7       29.95R WCI  -7
WARROAD        SUNNY      9   1  72 NE8       29.95R WCI  -4
THIEF RVR FALL CLOUDY    13   9  84 NE14      29.90S WCI  -2
CROOKSTON      MOSUNNY   16  12  86 N9        29.92R WCI   4
FOSSTON        CLOUDY    18  16  93 NE9       29.85F WCI   6
DETROIT LAKES  SUNNY     25  19  80 NE9       29.82R WCI  15
MOORHEAD       MOSUNNY   21  18  86 N15       29.87S WCI   8
PARK RAPIDS    CLOUDY    24  17  74 NE12      29.80R WCI  13
MAHNOMEN       FAIR      22  18  86 NE12      29.84S WCI  10
$$
MNZ006-009>011-018-025>026-281600-
   North Central Minnesota

CITY           SKY/WX    TMP DP  RH WIND       PRES   REMARKS
BAUDETTE       SUNNY     15   9  76 NE6       29.91R WCI   6
FLAG ISLAND    SUNNY      9   1  72 NE12      29.95R WCI  -6
INTL FALLS     CLOUDY    19  13  77 NE7       29.90R WCI  10
WASKISH        CLOUDY    21  18  86 NE10      29.88S WCI  10
BIG FORK       CLOUDY    25  18  74 NE7       29.85R WCI  17
LONGVILLE      CLOUDY    25  21  86 N5        29.82R WCI  19
GRAND RAPIDS   CLOUDY    26  23  88 N8        29.83R WCI  18
CRANE LAKE     CLOUDY    21  18  86 NE3       29.90S
ORR            CLOUDY    21  16  79 CALM      29.84R
COOK           CLOUDY    23  18  80 NE9       29.85R WCI  13
WALKER         CLOUDY    23  19  87 NE7       29.83R WCI  14
$$
MNZ012-019>021-037-281600-
   Northeast Minnesota

CITY           SKY/WX    TMP DP  RH WIND       PRES   REMARKS
DULUTH         LGT SNOW  31  29  92 NE7       29.79S FOG     WCI  24
ELY            CLOUDY    21  19  93 NE7       29.83S WCI  13
HIBBING        CLOUDY    25  22  88 NE9       29.81S WCI  15
EVELETH        CLOUDY    26  23  86 NE9       29.82F WCI  17
DULUTH HARBOR  MIX PCPN  32  30  93 NE8       29.83S VSB 1   WCI  25
TWO HARBORS    LGT SNOW  34  28  80 NE6       29.80S WCI  29
SILVER BAY     CLOUDY    30  28  93 N6        29.80F WCI  24
GRAND MARAIS     N/A     31  26  82 VRB7      29.86R WCI  24
G MARAIS ARPRT CLOUDY    23  19  86 N8        29.81S WCI  14
$$
MNZ029>031-032-039>041-046>048-054>057-064-281600-
   West Central Minnesota

CITY           SKY/WX    TMP DP  RH WIND       PRES   REMARKS
FERGUS FALLS   CLOUDY    25  18  74 NE6       29.85R WCI  18
WHEATON        CLOUDY    25  19  80 NW14      29.83S WCI  13
MORRIS         LGT SNOW  30  28  93 NW12      29.77R WCI  21
ALEXANDRIA     LGT SNOW  30  27  88 NE7       29.77R FOG     WCI  23
ELBOW LAKE     CLOUDY    28  22  80 NE9       29.79S WCI  19
WADENA         CLOUDY    25  19  80 NE12      29.77S WCI  14
GLENWOOD       LGT SNOW  30  30 100 N9        29.76S WCI  22
APPLETON       LGT SNOW  30  27  86 N8        29.76F WCI  23
BENSON         LGT SNOW  34  30  86 NE6       29.77F WCI  29
ORTONVILLE     FLURRIES  27  21  80 N16       29.77F WCI  14
MADISON        LGT SNOW  28  28 100 N10       29.77S WCI  19
WILLMAR        FAIR      36  34  93 N10       29.74R
$$
MNZ033>034-036-042>043-049>051-058-059-281600-
   Central Minnesota

CITY           SKY/WX    TMP DP  RH WIND       PRES   REMARKS
ST CLOUD       CLOUDY    35  31  85 N8        29.74F WCI  29
SAUK CENTRE    LGT SNOW  32  31  98 N5        29.77R VSB 1   WCI  27
PAYNESVILLE    CLOUDY    33  34 100 NE8       29.74S FOG     WCI  27
AITKIN         MIX PCPN  34  28  80 N6        29.77S WCI  29
PINE RIVER     CLOUDY    25  21  86 N8        29.84R WCI  16
BRAINERD       CLOUDY    31  28  89 NE8       29.78S FOG     WCI  23
STAPLES        CLOUDY    27  19  74 NE8       29.78S WCI  18
LONG PRAIRIE   LGT SNOW  32  30  93 NW6       29.76R WCI  26
LITTLE FALLS   LGT SNOW  32  30  93 N3        29.76F VSB 1
LITCHFIELD     CLOUDY    36  30  80 NE10      29.72F
BUFFALO        CLOUDY    36  29  76 N8        29.74R
MAPLE LAKE     CLOUDY    36  32  85 NE8       29.73F
HUTCHINSON     PTSUNNY   37  31  81 N13       29.72S
$$
MNZ037-044-045-052-053-281600-
   East Central Minnesota

CITY           SKY/WX    TMP DP  RH WIND       PRES   REMARKS
PRINCETON      CLOUDY    36  30  80 NE6       29.75F
MORA           LGT SNOW  32  30  93 CALM      29.78F
CAMBRIDGE      CLOUDY    36  27  69 N5        29.73F
RUSH CITY      CLOUDY    33  29  85 NE6       29.75F WCI  28
MOOSE LAKE     LGT SNOW  32  30  93 NE7       29.77S WCI  26
HINCKLEY       LGT SNOW  32  32 100 N7        29.77F WCI  26
CLOQUET        LGT SNOW  30  28  93 N3        29.79S
MCGREGOR       CLOUDY    32  30  93 NE3       29.79S
$$
MNZ071>073-080-081-089-090-097-098-281600-
   Southwest Minnesota

CITY           SKY/WX    TMP DP  RH WIND       PRES   REMARKS
MONTEVIDEO     CLOUDY    30  30 100 N8        29.77S FOG     WCI  23
GRANITE FALLS  CLOUDY    37  34  91 NW8       29.75S
CANBY          CLOUDY    28  26  93 NW3       29.77S FOG
MARSHALL       CLOUDY    30  29  96 N16       29.73R WCI  19
REDWOOD FALLS  CLOUDY    36  29  75 N8        29.70R
OLIVIA         MOSUNNY   34  32  93 N10       29.70S WCI  26
PIPESTONE      CLOUDY    32  28  86 NE15G23   29.68R FOG     WCI  22
WINDOM         CLOUDY    36  34  93 NE6       29.66F
WORTHINGTON    CLOUDY    34  31  88 NE9       29.66F FOG     WCI  27
JACKSON        CLOUDY    34  32  93 NE8       29.67S WCI  27
TRACY          MOSUNNY   33  32  98 N15       29.71R FOG     WCI  23
SLAYTON        CLOUDY    30  30 100 N15       29.70R FOG     WCI  19
$$
MNZ065>067-074>077-082>085-091>093-281600-
   South Central Minnesota

CITY           SKY/WX    TMP DP  RH WIND       PRES   REMARKS
MANKATO          N/A     38  33  82 NE12      29.69F
NEW ULM        CLOUDY    39  32  75 E12       29.66F
ST JAMES       CLOUDY    37  34  87 NE7       29.68F
FAIRMONT       CLOUDY    34  31  88 NE8       29.68S WCI  27
GLENCOE        MOSUNNY   37  33  83 NE6       29.69F
FARIBAULT      CLOUDY    37  34  87 N7        29.71F
OWATONNA       CLOUDY    36  34  93 N9        29.69S
WASECA         CLOUDY    36  32  87 N12       29.70S
ALBERT LEA     CLOUDY    36  36 100 N10       29.66S
$$
MNZ078>079-086>088-094>096-281600-
   Southeast Minnesota

CITY           SKY/WX    TMP DP  RH WIND       PRES   REMARKS
ROCHESTER      CLOUDY    37  36  96 E5        29.67S FOG
RED WING       CLOUDY    39  30  70 E5        29.72S
STANTON        CLOUDY    37  32  84 NE7       29.70F
WINONA         CLOUDY    37  36  93 CALM      29.69F
AUSTIN         CLOUDY    37  36  93 E6        29.66S FOG
PRESTON        FOG       37  36  95 E5        29.67S VSB 1
$$
ABBREVIATIONS USED IN REMARKS
   TC - TEMPERATURES IN CELSIUS
  WCI - WIND CHILL INDEX
   HX - HEAT INDEX
  VSB - VISIBILITY
$$




USA.gov is the U.S. government's official web portal to all federal, state and local government web resources and services.